This is the latest recevied weather packets stored in our database for station/object OE6PLD-13. If no packets are shown the sender has not sent any weather packets the latest 10 day(s).
| Time | Temp. | Humidity | Pressure | Rain* | Wind** | Luminosity | Snow |
|---|---|---|---|---|---|---|---|
| 1777559768 | 15.56° C | 28% | 1012.2 hPa | 0.76 mm | - | 340 W/m² | - |
| 1777559585 | 15.56° C | 27% | 1012.1 hPa | 0.76 mm | - | 327 W/m² | - |
| 1777559401 | 15.56° C | 26% | 1012.2 hPa | 0.76 mm | - | 336 W/m² | - |
| 1777559218 | 15.56° C | 28% | 1012.3 hPa | 0.76 mm | - | 337 W/m² | - |
| 1777559035 | 15° C | 28% | 1012.4 hPa | 0.76 mm | - | 328 W/m² | - |
| 1777558851 | 15° C | 27% | 1012.4 hPa | 0.76 mm | - | 337 W/m² | - |
| 1777558668 | 15.56° C | 27% | 1012.3 hPa | 0.76 mm | - | 360 W/m² | - |
| 1777558485 | 16.11° C | 25% | 1012.1 hPa | 0.76 mm | - | 370 W/m² | - |
| 1777558301 | 15.56° C | 28% | 1012.1 hPa | 0.76 mm | - | 364 W/m² | - |
| 1777558118 | 15° C | 27% | 1012.4 hPa | 0.76 mm | - | 367 W/m² | - |
| 1777557935 | 15.56° C | 26% | 1012.4 hPa | 0.76 mm | - | 388 W/m² | - |
| 1777557751 | 16.11° C | 27% | 1012.5 hPa | 0.76 mm | - | 386 W/m² | - |
| 1777557568 | 16.11° C | 26% | 1012.3 hPa | 0.76 mm | - | 392 W/m² | - |
| 1777557384 | 15.56° C | 27% | 1012.2 hPa | 0.76 mm | - | 377 W/m² | - |
| 1777557201 | 15.56° C | 27% | 1012.4 hPa | 0.76 mm | - | 369 W/m² | - |
| 1777557018 | 15° C | 27% | 1012.5 hPa | 0.76 mm | - | 361 W/m² | - |
| 1777556834 | 15° C | 26% | 1012.5 hPa | 0.76 mm | - | 377 W/m² | - |
| 1777556651 | 15.56° C | 27% | 1012.5 hPa | 0.76 mm | - | 366 W/m² | - |
| 1777556468 | 16.11° C | 25% | 1012.4 hPa | 0.76 mm | - | 354 W/m² | - |
| 1777556284 | 15.56° C | 27% | 1012.4 hPa | 0.76 mm | - | 359 W/m² | - |
| 1777556101 | 16.11° C | 25% | 1012.4 hPa | 0.76 mm | - | 381 W/m² | - |
| 1777555918 | 16.11° C | 25% | 1012.5 hPa | 0.76 mm | - | 389 W/m² | - |
| 1777555734 | 15.56° C | 26% | 1012.5 hPa | 0.76 mm | - | 394 W/m² | - |
| 1777555551 | 16.11° C | 27% | 1012.6 hPa | 0.76 mm | - | 391 W/m² | - |
| 1777555368 | 15.56° C | 25% | 1012.7 hPa | 0.76 mm | - | 399 W/m² | - |
* Rain latest hour (hover to see other rain measurements)
** Current wind speed in m/s (hover to see current wind gust speed)